Time,TemperatureF,DewpointF,PressureIn,WindDirection,WindDirectionDegrees,WindSpeedMPH,WindSpeedGustMPH,Humidity,HourlyPrecipIn,Conditions,Clouds,dailyrainin,SoftwareType,DateUTC
2013-03-08 00:05:00,56.5,-99.9,30.14,NNE,15,0.0,1.0,255,0.00,,,0.00,Wunderground v.1.13,2013-03-08 05:05:00,
2013-03-08 00:26:00,55.9,-99.9,30.14,NNE,15,0.0,0.0,255,0.00,,,0.00,Wunderground v.1.13,2013-03-08 05:26:00,
2013-03-08 00:31:00,55.6,-99.9,30.14,NNE,15,0.0,0.0,255,0.00,,,0.00,Wunderground v.1.13,2013-03-08 05:31:00,
2013-03-08 00:40:00,55.1,-99.9,30.14,NNE,15,0.0,0.0,255,0.00,,,0.00,Wunderground v.1.13,2013-03-08 05:40:00,
2013-03-08 00:46:00,54.8,-99.9,30.14,NNE,15,0.0,0.0,255,0.00,,,0.00,Wunderground v.1.13,2013-03-08 05:46:00,
2013-03-08 00:56:00,54.5,-99.9,30.14,NNE,15,0.0,0.0,255,0.00,,,0.00,Wunderground v.1.13,2013-03-08 05:56:00,
2013-03-08 01:01:00,54.2,-99.9,30.13,NNE,23,0.0,2.0,-32768,0.00,,,0.00,Wunderground v.1.13,2013-03-08 06:01:00,
2013-03-08 01:26:00,53.8,-99.9,30.14,NNE,15,0.0,0.0,255,0.00,,,0.00,Wunderground v.1.13,2013-03-08 06:26:00,
2013-03-08 01:45:00,53.8,-99.9,30.13,NNE,15,1.0,2.0,255,0.00,,,0.00,Wunderground v.1.13,2013-03-08 06:45:00,
2013-03-08 02:06:00,54.2,-99.9,30.12,NNE,15,2.0,2.0,255,0.00,,,0.00,Wunderground v.1.13,2013-03-08 07:06:00,
2013-03-08 02:26:00,54.4,-99.9,30.12,NNE,15,2.0,3.0,255,0.00,,,0.00,Wunderground v.1.13,2013-03-08 07:26:00,
2013-03-08 02:40:00,54.2,-99.9,30.11,NNE,15,1.0,1.0,255,0.00,,,0.00,Wunderground v.1.13,2013-03-08 07:40:00,
2013-03-08 02:46:00,54.2,-99.9,30.11,NNE,15,1.0,2.0,255,0.00,,,0.00,Wunderground v.1.13,2013-03-08 07:46:00,
2013-03-08 02:56:00,54.1,-99.9,30.11,NNE,15,1.0,2.0,255,0.00,,,0.00,Wunderground v.1.13,2013-03-08 07:56:00,
2013-03-08 03:01:00,54.2,-99.9,30.11,NNE,15,2.0,3.0,255,0.00,,,0.00,Wunderground v.1.13,2013-03-08 08:01:00,
2013-03-08 03:35:00,53.9,-99.9,30.12,NNE,15,1.0,3.0,255,0.00,,,0.00,Wunderground v.1.13,2013-03-08 08:35:00,
2013-03-08 03:41:00,53.9,-99.9,30.12,NNE,15,2.0,2.0,255,0.00,,,0.00,Wunderground v.1.13,2013-03-08 08:41:00,
2013-03-08 03:51:00,53.8,-99.9,30.12,NNE,15,2.0,2.0,255,0.00,,,0.00,Wunderground v.1.13,2013-03-08 08:51:00,
2013-03-08 04:06:00,53.5,-99.9,30.12,NNE,15,2.0,3.0,255,0.00,,,0.00,Wunderground v.1.13,2013-03-08 09:06:00,
2013-03-08 04:20:00,53.2,-99.9,30.11,NNE,15,2.0,2.0,255,0.00,,,0.00,Wunderground v.1.13,2013-03-08 09:20:00,
2013-03-08 04:25:00,53.1,-99.9,30.11,NNE,15,2.0,3.0,255,0.00,,,0.00,Wunderground v.1.13,2013-03-08 09:25:00,
2013-03-08 04:31:00,52.9,-99.9,30.11,NNE,15,2.0,2.0,255,0.00,,,0.00,Wunderground v.1.13,2013-03-08 09:31:00,
2013-03-08 04:41:00,52.8,-99.9,30.11,NNE,15,2.0,2.0,255,0.00,,,0.00,Wunderground v.1.13,2013-03-08 09:41:00,
2013-03-08 04:46:00,52.8,-99.9,30.11,NNE,15,2.0,2.0,255,0.00,,,0.00,Wunderground v.1.13,2013-03-08 09:46:00,
2013-03-08 04:56:00,52.6,-99.9,30.11,NNE,23,2.0,3.0,-32768,0.00,,,0.00,Wunderground v.1.13,2013-03-08 09:56:00,
2013-03-08 05:01:00,52.6,-99.9,30.12,NNE,23,3.0,3.0,-32768,0.00,,,0.00,Wunderground v.1.13,2013-03-08 10:01:00,
2013-03-08 05:31:00,52.3,-99.9,30.12,NNE,15,1.0,2.0,255,0.00,,,0.00,Wunderground v.1.13,2013-03-08 10:31:00,
2013-03-08 05:51:00,52.0,-99.9,30.12,NNE,15,1.0,1.0,255,0.00,,,0.00,Wunderground v.1.13,2013-03-08 10:51:00,
2013-03-08 06:01:00,51.9,-99.9,30.12,NNE,15,1.0,2.0,255,0.00,,,0.00,Wunderground v.1.13,2013-03-08 11:01:00,
2013-03-08 06:26:00,51.6,-99.9,30.14,NNE,15,2.0,2.0,255,0.00,,,0.00,Wunderground v.1.13,2013-03-08 11:26:00,
2013-03-08 06:56:00,51.9,-99.9,30.14,NW,309,0.0,0.0,255,0.00,,,0.00,Wunderground v.1.13,2013-03-08 11:56:00,
2013-03-08 07:06:00,52.0,-99.9,30.15,NW,309,1.0,1.0,255,0.00,,,0.00,Wunderground v.1.13,2013-03-08 12:06:00,
2013-03-08 07:50:00,54.5,-99.9,30.15,NW,313,4.0,4.0,255,0.00,,,0.00,Wunderground v.1.13,2013-03-08 12:50:00,
2013-03-08 07:55:00,54.8,-99.9,30.15,NW,317,4.0,7.0,255,0.00,,,0.00,Wunderground v.1.13,2013-03-08 12:55:00,
2013-03-08 08:06:00,57.0,-99.9,30.16,NW,315,4.0,8.0,255,0.00,,,0.00,Wunderground v.1.13,2013-03-08 13:06:00,
2013-03-08 08:26:00,59.9,-99.9,30.16,NW,317,4.0,4.0,255,0.00,,,0.00,Wunderground v.1.13,2013-03-08 13:26:00,
2013-03-08 08:36:00,61.2,-99.9,30.16,NNW,333,5.0,7.0,255,0.00,,,0.00,Wunderground v.1.13,2013-03-08 13:36:00,
2013-03-08 08:46:00,62.1,-99.9,30.16,NW,323,5.0,7.0,255,0.00,,,0.00,Wunderground v.1.13,2013-03-08 13:46:00,
2013-03-08 09:01:00,63.7,-99.9,30.16,North,355,6.0,6.0,255,0.00,,,0.00,Wunderground v.1.13,2013-03-08 14:01:00,
2013-03-08 09:36:00,66.9,-99.9,30.17,North,355,7.0,7.0,255,0.00,,,0.00,Wunderground v.1.13,2013-03-08 14:36:00,
2013-03-08 09:41:00,67.8,-99.9,30.17,North,0,5.0,7.0,-32768,0.00,,,0.00,Wunderground v.1.13,2013-03-08 14:41:00,
2013-03-08 09:46:00,68.3,-99.9,30.17,NNW,338,6.0,8.0,-32768,0.00,,,0.00,Wunderground v.1.13,2013-03-08 14:46:00,
2013-03-08 09:51:00,68.4,-99.9,30.17,NNW,338,4.0,8.0,-32768,0.00,,,0.00,Wunderground v.1.13,2013-03-08 14:51:00,
2013-03-08 09:56:00,68.9,-99.9,30.17,NNW,338,7.0,9.0,-32768,0.00,,,0.00,Wunderground v.1.13,2013-03-08 14:56:00,
2013-03-08 10:01:00,69.3,-99.9,30.16,North,0,5.0,7.0,-32768,0.00,,,0.00,Wunderground v.1.13,2013-03-08 15:01:00,
2013-03-08 10:06:00,69.8,-99.9,30.16,NNW,338,5.0,8.0,-32768,0.00,,,0.00,Wunderground v.1.13,2013-03-08 15:06:00,
2013-03-08 10:11:00,70.3,-99.9,30.16,NNW,338,6.0,8.0,-32768,0.00,,,0.00,Wunderground v.1.13,2013-03-08 15:11:00,
2013-03-08 10:16:00,70.1,-99.9,30.17,North,0,8.0,12.0,-32768,0.00,,,0.00,Wunderground v.1.13,2013-03-08 15:16:00,
2013-03-08 10:21:00,70.4,-99.9,30.17,North,0,7.0,9.0,-32768,0.00,,,0.00,Wunderground v.1.13,2013-03-08 15:21:00,
2013-03-08 10:26:00,70.8,-99.9,30.17,NW,315,3.0,5.0,-32768,0.00,,,0.00,Wunderground v.1.13,2013-03-08 15:26:00,
2013-03-08 10:31:00,71.5,-99.9,30.17,North,0,4.0,6.0,-32768,0.00,,,0.00,Wunderground v.1.13,2013-03-08 15:31:00,
2013-03-08 10:36:00,71.6,-99.9,30.17,NNW,338,9.0,10.0,-32768,0.00,,,0.00,Wunderground v.1.13,2013-03-08 15:36:00,
2013-03-08 10:41:00,71.8,-99.9,30.17,North,0,7.0,9.0,-32768,0.00,,,0.00,Wunderground v.1.13,2013-03-08 15:41:00,
2013-03-08 10:46:00,71.3,-99.9,30.17,NNE,23,4.0,7.0,-32768,0.00,,,0.00,Wunderground v.1.13,2013-03-08 15:46:00,
2013-03-08 10:51:00,71.1,-99.9,30.17,NNE,23,4.0,5.0,-32768,0.00,,,0.00,Wunderground v.1.13,2013-03-08 15:51:00,
2013-03-08 10:56:00,71.8,-99.9,30.17,North,0,3.0,9.0,-32768,0.00,,,0.00,Wunderground v.1.13,2013-03-08 15:56:00,
2013-03-08 11:01:00,72.1,-99.9,30.16,North,0,6.0,8.0,-32768,0.00,,,0.00,Wunderground v.1.13,2013-03-08 16:01:00,
2013-03-08 11:12:00,72.1,-99.9,30.16,ENE,57,5.0,7.0,255,0.00,,,0.00,Wunderground v.1.13,2013-03-08 16:12:00,
2013-03-08 11:22:00,73.9,-99.9,30.15,NNE,14,4.0,4.0,255,0.00,,,0.00,Wunderground v.1.13,2013-03-08 16:22:00,
2013-03-08 11:26:00,72.3,-99.9,30.15,North,0,7.0,10.0,-32768,0.00,,,0.00,Wunderground v.1.13,2013-03-08 16:26:00,
2013-03-08 11:31:00,72.3,-99.9,30.15,NNE,23,3.0,5.0,-32768,0.00,,,0.00,Wunderground v.1.13,2013-03-08 16:31:00,
2013-03-08 11:36:00,72.5,-99.9,30.15,NNE,23,4.0,7.0,-32768,0.00,,,0.00,Wunderground v.1.13,2013-03-08 16:36:00,
2013-03-08 11:41:00,72.5,-99.9,30.15,NNE,23,6.0,9.0,-32768,0.00,,,0.00,Wunderground v.1.13,2013-03-08 16:41:00,
2013-03-08 11:46:00,72.5,-99.9,30.15,NE,45,4.0,7.0,-32768,0.00,,,0.00,Wunderground v.1.13,2013-03-08 16:46:00,
2013-03-08 11:51:00,72.1,-99.9,30.15,ENE,68,3.0,7.0,-32768,0.00,,,0.00,Wunderground v.1.13,2013-03-08 16:51:00,
2013-03-08 11:56:00,72.7,-99.9,30.15,NNE,23,5.0,8.0,-32768,0.00,,,0.00,Wunderground v.1.13,2013-03-08 16:56:00,
2013-03-08 12:11:00,72.5,-99.9,30.14,ENE,68,7.0,9.0,-32768,0.00,,,0.00,Wunderground v.1.13,2013-03-08 17:11:00,
2013-03-08 12:16:00,73.2,-99.9,30.14,NE,45,6.0,9.0,-32768,0.00,,,0.00,Wunderground v.1.13,2013-03-08 17:16:00,
2013-03-08 12:21:00,73.0,-99.9,30.14,NNW,338,4.0,6.0,-32768,0.00,,,0.00,Wunderground v.1.13,2013-03-08 17:21:00,
2013-03-08 12:26:00,72.8,-99.9,30.14,North,0,9.0,11.0,-32768,0.00,,,0.00,Wunderground v.1.13,2013-03-08 17:26:00,
2013-03-08 12:31:00,73.0,-99.9,30.13,NNE,23,5.0,8.0,-32768,0.00,,,0.00,Wunderground v.1.13,2013-03-08 17:31:00,
2013-03-08 12:36:00,73.9,-99.9,30.13,NE,45,5.0,9.0,-32768,0.00,,,0.00,Wunderground v.1.13,2013-03-08 17:36:00,
2013-03-08 12:41:00,73.7,-99.9,30.13,NE,45,6.0,10.0,-32768,0.00,,,0.00,Wunderground v.1.13,2013-03-08 17:41:00,
2013-03-08 12:46:00,73.0,-99.9,30.12,ENE,68,6.0,9.0,-32768,0.00,,,0.00,Wunderground v.1.13,2013-03-08 17:46:00,
2013-03-08 12:51:00,74.4,-99.9,30.12,East,90,7.0,11.0,-32768,0.00,,,0.00,Wunderground v.1.13,2013-03-08 17:51:00,
2013-03-08 12:56:00,74.6,-99.9,30.12,NE,45,3.0,4.0,-32768,0.00,,,0.00,Wunderground v.1.13,2013-03-08 17:56:00,
2013-03-08 13:01:00,74.0,-99.9,30.11,NE,45,5.0,9.0,-32768,0.00,,,0.00,Wunderground v.1.13,2013-03-08 18:01:00,
2013-03-08 13:43:00,75.1,-99.9,30.10,ENE,61,5.0,5.0,255,0.00,,,0.00,Wunderground v.1.13,2013-03-08 18:43:00,
2013-03-08 13:50:00,74.0,-99.9,30.10,ENE,61,5.0,7.0,255,0.00,,,0.00,Wunderground v.1.13,2013-03-08 18:50:00,
2013-03-08 13:55:00,73.9,-99.9,30.10,ENE,68,5.0,8.0,-32768,0.00,,,0.00,Wunderground v.1.13,2013-03-08 18:55:00,
2013-03-08 14:00:00,73.9,-99.9,30.09,NE,45,6.0,9.0,-32768,0.00,,,0.00,Wunderground v.1.13,2013-03-08 19:00:00,
2013-03-08 14:21:00,73.5,-99.9,30.09,NE,48,6.0,6.0,255,0.00,,,0.00,Wunderground v.1.13,2013-03-08 19:21:00,
2013-03-08 14:31:00,73.9,-99.9,30.09,NE,46,5.0,5.0,255,0.00,,,0.00,Wunderground v.1.13,2013-03-08 19:31:00,
2013-03-08 14:51:00,73.7,-99.9,30.09,East,80,6.0,6.0,255,0.00,,,0.00,Wunderground v.1.13,2013-03-08 19:51:00,
2013-03-08 15:01:00,73.5,-99.9,30.09,NNE,25,6.0,6.0,255,0.00,,,0.00,Wunderground v.1.13,2013-03-08 20:01:00,
2013-03-08 15:36:00,73.0,-99.9,30.07,North,360,6.0,7.0,255,0.00,,,0.00,Wunderground v.1.13,2013-03-08 20:36:00,
2013-03-08 16:01:00,72.8,-99.9,30.07,North,9,5.0,5.0,255,0.00,,,0.00,Wunderground v.1.13,2013-03-08 21:01:00,
2013-03-08 16:26:00,72.0,-99.9,30.07,NNE,18,5.0,5.0,255,0.00,,,0.00,Wunderground v.1.13,2013-03-08 21:26:00,
2013-03-08 16:36:00,72.3,-99.9,30.07,North,5,5.0,5.0,255,0.00,,,0.00,Wunderground v.1.13,2013-03-08 21:36:00,
2013-03-08 16:46:00,71.6,-99.9,30.07,NNE,21,5.0,5.0,255,0.00,,,0.00,Wunderground v.1.13,2013-03-08 21:46:00,
2013-03-08 16:56:00,71.3,-99.9,30.08,NNE,16,5.0,5.0,255,0.00,,,0.00,Wunderground v.1.13,2013-03-08 21:56:00,
2013-03-08 17:05:00,71.1,-99.9,30.08,NNE,26,5.0,5.0,255,0.00,,,0.00,Wunderground v.1.13,2013-03-08 22:05:00,
2013-03-08 17:26:00,70.3,-99.9,30.09,NNE,29,4.0,5.0,255,0.00,,,0.00,Wunderground v.1.13,2013-03-08 22:26:00,
2013-03-08 17:36:00,69.9,-99.9,30.09,NNE,15,5.0,5.0,255,0.00,,,0.00,Wunderground v.1.13,2013-03-08 22:36:00,
2013-03-08 17:41:00,69.8,-99.9,30.09,NNE,33,5.0,5.0,255,0.00,,,0.00,Wunderground v.1.13,2013-03-08 22:41:00,
2013-03-08 17:55:00,69.6,-99.9,30.09,North,11,5.0,6.0,255,0.00,,,0.00,Wunderground v.1.13,2013-03-08 22:55:00,
2013-03-08 18:06:00,69.3,-99.9,30.10,NNE,14,4.0,5.0,255,0.00,,,0.00,Wunderground v.1.13,2013-03-08 23:06:00,
2013-03-08 18:21:00,68.6,-99.9,30.10,NNE,15,5.0,5.0,255,0.00,,,0.00,Wunderground v.1.13,2013-03-08 23:21:00,
2013-03-08 18:26:00,68.3,-99.9,30.10,North,5,4.0,5.0,255,0.00,,,0.00,Wunderground v.1.13,2013-03-08 23:26:00,
2013-03-08 18:35:00,67.9,-99.9,30.10,NNE,26,4.0,4.0,255,0.00,,,0.00,Wunderground v.1.13,2013-03-08 23:35:00,
2013-03-08 18:40:00,67.8,-99.9,30.10,NNE,17,4.0,4.0,255,0.00,,,0.00,Wunderground v.1.13,2013-03-08 23:40:00,
2013-03-08 18:46:00,67.6,-99.9,30.10,NNE,17,4.0,5.0,255,0.00,,,0.00,Wunderground v.1.13,2013-03-08 23:46:00,
2013-03-08 18:56:00,67.3,-99.9,30.10,NNE,17,4.0,4.0,255,0.00,,,0.00,Wunderground v.1.13,2013-03-08 23:56:00,
2013-03-08 19:01:00,67.1,-99.9,30.10,NNE,17,3.0,3.0,255,0.00,,,0.00,Wunderground v.1.13,2013-03-09 00:01:00,
2013-03-08 19:26:00,66.3,-99.9,30.11,North,10,3.0,3.0,255,0.00,,,0.00,Wunderground v.1.13,2013-03-09 00:26:00,
2013-03-08 19:41:00,65.8,-99.9,30.12,North,10,3.0,3.0,255,0.00,,,0.00,Wunderground v.1.13,2013-03-09 00:41:00,
2013-03-08 20:01:00,65.0,-99.9,30.12,North,10,3.0,3.0,255,0.00,,,0.00,Wunderground v.1.13,2013-03-09 01:01:00,
2013-03-08 20:31:00,63.9,-99.9,30.12,North,10,2.0,2.0,255,0.00,,,0.00,Wunderground v.1.13,2013-03-09 01:31:00,
2013-03-08 20:36:00,63.5,-99.9,30.13,North,10,1.0,1.0,255,0.00,,,0.00,Wunderground v.1.13,2013-03-09 01:36:00,
2013-03-08 20:56:00,62.6,-99.9,30.14,North,10,1.0,1.0,255,0.00,,,0.00,Wunderground v.1.13,2013-03-09 01:56:00,
2013-03-08 21:01:00,62.3,-99.9,30.14,N/A,-737280,0.0,0.0,-32768,0.00,,,0.00,Wunderground v.1.13,2013-03-09 02:01:00,
2013-03-08 21:21:00,61.3,-99.9,30.14,North,10,2.0,2.0,255,0.00,,,0.00,Wunderground v.1.13,2013-03-09 02:21:00,
2013-03-08 21:31:00,60.9,-99.9,30.14,North,10,1.0,1.0,255,0.00,,,0.00,Wunderground v.1.13,2013-03-09 02:31:00,
2013-03-08 21:46:00,60.2,-99.9,30.15,North,10,1.0,1.0,255,0.00,,,0.00,Wunderground v.1.13,2013-03-09 02:46:00,
2013-03-08 21:56:00,59.9,-99.9,30.14,North,10,0.0,0.0,255,0.00,,,0.00,Wunderground v.1.13,2013-03-09 02:56:00,
2013-03-08 22:01:00,59.5,-99.9,30.14,N/A,-737280,0.0,0.0,-32768,0.00,,,0.00,Wunderground v.1.13,2013-03-09 03:01:00,
2013-03-08 22:31:00,58.3,-99.9,30.15,North,10,1.0,1.0,255,0.00,,,0.00,Wunderground v.1.13,2013-03-09 03:31:00,
2013-03-08 22:46:00,57.8,-99.9,30.14,North,10,0.0,0.0,255,0.00,,,0.00,Wunderground v.1.13,2013-03-09 03:46:00,
2013-03-08 22:56:00,57.5,-99.9,30.14,N/A,-737280,0.0,0.0,-32768,0.00,,,0.00,Wunderground v.1.13,2013-03-09 03:56:00,
2013-03-08 23:01:00,57.5,-99.9,30.14,N/A,-737280,0.0,0.0,-32768,0.00,,,0.00,Wunderground v.1.13,2013-03-09 04:01:00,
2013-03-08 23:31:00,56.5,-99.9,30.14,North,10,0.0,0.0,255,0.00,,,0.00,Wunderground v.1.13,2013-03-09 04:31:00,